Regional Weather Roundup
Issued by NWS

Home | Current Version | Previous Version | Text Only | Print | Product List | Glossary On
Versions: 1 2 3 4 5 6 7 8 9 10 11 12 13 14 15 16 17 18 19 20 21 22 23 24 25 26 27 28 29 30 31 32 33 34 35 36 37 38 39 40 41 42 43 44 45 46 47 48 49 50
000
ASUS43 KLMK 052210
RWRKY
KENTUCKY REGIONAL WEATHER ROUNDUP
NATIONAL WEATHER SERVICE LOUISVILLE KY
600 PM EDT TUE MAY 05 2015

NOTE "FAIR" INDICATES FEW OR NO CLOUDS BELOW 12,000 FEET
WITH NO SIGNIFICANT WEATHER AND/OR OBSTRUCTIONS TO VISIBILITY.

KYZ001>023-026-027-061>063-070>075-052300-
WESTERN AND SOUTH CENTRAL KENTUCKY

CITY           SKY/WX    TMP DP  RH WIND       PRES   REMARKS
PADUCAH        MOSUNNY   85  53  33 S10       30.13F
HENDERSON      MOSUNNY   81  52  36 S12       30.13F
OWENSBORO      MOSUNNY   84  55  36 S9        30.16F
HOPKINSVILLE   SUNNY     81  53  37 SW5       30.16F
BOWLING GREEN  SUNNY     84  50  30 SW3       30.18F
GLASGOW        SUNNY     83  51  32 SW3       30.19F
$$

KYZ024-025-028>034-038-045-046-053-052300-
NORTH CENTRAL KENTUCKY

CITY           SKY/WX    TMP DP  RH WIND       PRES   REMARKS
LOUISVILLE/SDF MOSUNNY   85  52  32 W10       30.17F
LOUISVILLE/LOU PTSUNNY   84  51  31 VRB6      30.18F
FORT KNOX      MOSUNNY   82  54  36 S7        30.18F
$$

KYZ035>037-039>044-047>052-055>060-089>105-052300-
NORTHEAST KENTUCKY

CITY           SKY/WX    TMP DP  RH WIND       PRES   REMARKS
LEXINGTON      SUNNY     81  54  39 S6        30.21F
COVINGTON      MOSUNNY   80  54  40 S8        30.19F
FRANKFORT      MOSUNNY   81  53  37 S8        30.19F
$$

KYZ054-064>069-076>088-106>120-052300-
SOUTHEAST KENTUCKY

CITY           SKY/WX    TMP DP  RH WIND       PRES   REMARKS
JACKSON        PTSUNNY   82  49  31 VRB6      30.23F
LONDON         SUNNY     82  47  29 W6        30.22F
SOMERSET       MOSUNNY   79  50  36 W6        30.22F
MIDDLESBORO    MOSUNNY   82  49  31 CALM      30.22S
MONTICELLO     CLEAR     84  52  33 NW5       30.24F
$$



USA.gov is the U.S. government's official web portal to all federal, state and local government web resources and services.